RYR2103 EGGP-LCPH

Flight info

Callsign RYR2103
Flight time 4h 32m
Altitude 33000
Route NANTI L8 HON L15 FINMA DCT CHT DCT ITVIP DCT KONAN DCT KOK DCT KOMOB DCT EDISA DCT KUNOD DCT GEDSO DCT VEKEN DCT NEMEK DCT TUPUS DCT MONID DCT RIVUS/N0442F350 DCT RUDAR DCT MEDUX UM867 KOGAT DCT ERANA UL737 TSL UN130 ESOPO DCT MES UL609 RDS UM601 EVENO DCT DASNI M32 TOBAL
Aircraft B738/M-SDE2E3FGHIRWXY/LB1

Departure

Time 2026-04-16 08:15
Airport Liverpool John Lennon Airport (EGGP)

Arrival

Time 2026-04-16 12:47
Airport Paphos International Airport (LCPH)
Time Latitude Longitude Altitude Speed Heading
2026-04-16 07:48 53.33641 -2.85955 84 ft 0 kts 355°
2026-04-16 08:02 53.33633 -2.85954 86 ft 4 kts 355°
2026-04-16 08:02 53.33609 -2.85952 84 ft 4 kts 17°
2026-04-16 08:03 53.33595 -2.85974 89 ft 4 kts 88°
2026-04-16 08:03 53.33595 -2.86010 86 ft 2 kts 85°
2026-04-16 08:03 53.33594 -2.86020 88 ft 4 kts 85°
2026-04-16 08:03 53.33594 -2.86024 88 ft 4 kts 85°
2026-04-16 08:04 53.33592 -2.86069 84 ft 4 kts 85°
2026-04-16 08:04 53.33591 -2.86087 84 ft 0 kts 85°
2026-04-16 08:07 53.33591 -2.86086 84 ft 0 kts 85°
2026-04-16 08:07 53.33592 -2.86072 84 ft 2 kts 85°
2026-04-16 08:07 53.33594 -2.86035 84 ft 4 kts 85°
2026-04-16 08:08 53.33594 -2.85980 86 ft 4 kts 96°
2026-04-16 08:08 53.33570 -2.85944 89 ft 5 kts 161°
2026-04-16 08:08 53.33529 -2.85932 84 ft 7 kts 174°
2026-04-16 08:08 53.33501 -2.85925 86 ft 4 kts 160°
2026-04-16 08:09 53.33489 -2.85872 83 ft 6 kts 92°
2026-04-16 08:09 53.33492 -2.85789 83 ft 8 kts 86°
2026-04-16 08:09 53.33496 -2.85687 87 ft 9 kts 85°
2026-04-16 08:09 53.33502 -2.85570 85 ft 11 kts 85°
2026-04-16 08:10 53.33509 -2.85436 83 ft 12 kts 86°
2026-04-16 08:10 53.33514 -2.85288 83 ft 13 kts 86°
2026-04-16 08:10 53.33520 -2.85126 86 ft 14 kts 86°
2026-04-16 08:10 53.33530 -2.84955 84 ft 15 kts 84°
2026-04-16 08:11 53.33537 -2.84787 86 ft 14 kts 86°
2026-04-16 08:11 53.33545 -2.84617 79 ft 15 kts 85°
2026-04-16 08:11 53.33552 -2.84449 77 ft 14 kts 85°
2026-04-16 08:11 53.33560 -2.84287 77 ft 14 kts 85°
2026-04-16 08:12 53.33567 -2.84134 75 ft 13 kts 85°
2026-04-16 08:12 53.33575 -2.83985 73 ft 13 kts 85°
2026-04-16 08:12 53.33581 -2.83840 76 ft 12 kts 86°
2026-04-16 08:12 53.33587 -2.83699 80 ft 12 kts 86°
2026-04-16 08:13 53.33593 -2.83563 83 ft 12 kts 86°
2026-04-16 08:13 53.33600 -2.83427 89 ft 11 kts 87°
2026-04-16 08:13 53.33565 -2.83317 87 ft 11 kts 143°
2026-04-16 08:13 53.33505 -2.83296 84 ft 10 kts 174°
2026-04-16 08:14 53.33444 -2.83314 83 ft 8 kts 241°
2026-04-16 08:14 53.33436 -2.83407 82 ft 12 kts 264°
2026-04-16 08:14 53.33412 -2.83897 80 ft 73 kts 265°
2026-04-16 08:14 53.33356 -2.85081 78 ft 129 kts 265°
2026-04-16 08:15 53.33265 -2.86790 283 ft 152 kts 264°
2026-04-16 08:15 53.33227 -2.88620 773 ft 162 kts 266°
2026-04-16 08:15 53.33160 -2.90508 1419 ft 165 kts 258°
2026-04-16 08:15 53.32673 -2.92377 1688 ft 188 kts 230°
2026-04-16 08:16 53.31517 -2.93586 1890 ft 211 kts 194°
2026-04-16 08:16 53.30012 -2.93211 2248 ft 238 kts 154°
2026-04-16 08:16 53.28795 -2.91107 2611 ft 267 kts 125°
2026-04-16 08:16 53.27809 -2.88437 3343 ft 272 kts 126°
2026-04-16 08:17 53.26756 -2.85781 3894 ft 275 kts 129°
2026-04-16 08:17 53.25484 -2.83419 4551 ft 275 kts 141°
2026-04-16 08:17 53.24061 -2.81268 5301 ft 278 kts 143°
2026-04-16 08:17 53.22599 -2.79128 6070 ft 281 kts 143°
2026-04-16 08:18 53.21124 -2.76963 6775 ft 284 kts 143°
2026-04-16 08:19 53.10274 -2.60678 10690 ft 342 kts 143°
2026-04-16 08:20 53.08479 -2.57968 11103 ft 353 kts 143°
2026-04-16 08:20 53.06653 -2.55202 11717 ft 357 kts 143°
2026-04-16 08:20 53.04809 -2.52407 12374 ft 360 kts 143°
2026-04-16 08:20 53.02951 -2.49595 13040 ft 363 kts 143°
2026-04-16 08:21 53.01069 -2.46755 13660 ft 368 kts 143°
2026-04-16 08:21 52.99163 -2.43885 14236 ft 372 kts 143°
2026-04-16 08:21 52.97239 -2.40991 14779 ft 375 kts 143°
2026-04-16 08:21 52.95293 -2.38068 15325 ft 379 kts 143°
2026-04-16 08:22 52.93352 -2.35155 15859 ft 384 kts 143°
2026-04-16 08:22 52.91363 -2.32174 16403 ft 388 kts 143°
2026-04-16 08:22 52.89352 -2.29164 16937 ft 392 kts 143°
2026-04-16 08:22 52.87318 -2.26127 17475 ft 396 kts 144°
2026-04-16 08:23 52.85232 -2.23145 18010 ft 397 kts 148°
2026-04-16 08:23 52.83002 -2.20438 18516 ft 398 kts 151°
2026-04-16 08:23 52.80717 -2.17826 18985 ft 401 kts 152°
2026-04-16 08:23 52.78403 -2.15219 19456 ft 404 kts 152°
2026-04-16 08:24 52.76079 -2.12593 19934 ft 407 kts 152°
2026-04-16 08:24 52.73740 -2.09932 20377 ft 410 kts 152°
2026-04-16 08:24 52.71396 -2.07246 20871 ft 412 kts 152°
2026-04-16 08:24 52.69038 -2.04533 21339 ft 415 kts 152°
2026-04-16 08:25 52.66662 -2.01797 21780 ft 418 kts 152°
2026-04-16 08:25 52.64269 -1.99041 22206 ft 421 kts 151°
2026-04-16 08:25 52.61857 -1.96266 22629 ft 425 kts 151°
2026-04-16 08:25 52.59426 -1.93472 23057 ft 428 kts 151°
2026-04-16 08:26 52.56977 -1.90660 23484 ft 431 kts 151°
2026-04-16 08:26 52.54515 -1.87838 23854 ft 434 kts 151°
2026-04-16 08:26 52.52030 -1.84995 24215 ft 436 kts 152°
2026-04-16 08:26 52.49535 -1.82143 24539 ft 438 kts 152°
2026-04-16 08:27 52.47026 -1.79280 24889 ft 441 kts 152°
2026-04-16 08:27 52.44506 -1.76408 25229 ft 443 kts 152°
2026-04-16 08:27 52.41970 -1.73520 25569 ft 445 kts 152°
2026-04-16 08:27 52.39416 -1.70618 25894 ft 447 kts 152°
2026-04-16 08:28 52.36853 -1.67706 26217 ft 450 kts 151°
2026-04-16 08:28 52.34400 -1.64434 26524 ft 461 kts 141°
2026-04-16 08:28 52.32158 -1.60653 26853 ft 465 kts 139°
2026-04-16 08:28 52.29939 -1.56780 27163 ft 468 kts 139°
2026-04-16 08:29 52.27717 -1.52889 27450 ft 470 kts 139°
2026-04-16 08:29 52.25469 -1.48981 27715 ft 472 kts 140°
2026-04-16 08:29 52.23208 -1.45088 28029 ft 474 kts 140°
2026-04-16 08:29 52.20928 -1.41197 28324 ft 476 kts 140°
2026-04-16 08:30 52.18631 -1.37297 28595 ft 478 kts 140°
2026-04-16 08:30 52.16321 -1.33387 28868 ft 480 kts 140°
2026-04-16 08:30 52.13998 -1.29461 29138 ft 482 kts 140°
2026-04-16 08:30 52.11665 -1.25523 29407 ft 484 kts 140°
2026-04-16 08:31 52.09325 -1.21577 29683 ft 486 kts 141°
2026-04-16 08:31 52.07011 -1.17676 30038 ft 485 kts 141°
2026-04-16 08:31 52.04668 -1.13734 30393 ft 484 kts 141°
2026-04-16 08:31 52.02327 -1.09813 30646 ft 484 kts 141°
2026-04-16 08:32 51.99953 -1.05929 30855 ft 485 kts 142°
2026-04-16 08:32 51.97509 -1.02170 31072 ft 484 kts 145°
2026-04-16 08:32 51.95005 -0.98538 31340 ft 482 kts 146°
2026-04-16 08:32 51.92485 -0.94963 31612 ft 482 kts 146°
2026-04-16 08:33 51.89961 -0.91395 31872 ft 482 kts 146°
2026-04-16 08:33 51.87436 -0.87809 32088 ft 483 kts 146°
2026-04-16 08:33 51.84914 -0.84205 32305 ft 484 kts 146°
2026-04-16 08:33 51.82391 -0.80588 32559 ft 485 kts 146°
2026-04-16 08:34 51.79874 -0.76974 32787 ft 485 kts 146°
2026-04-16 08:34 51.77347 -0.73350 32958 ft 486 kts 146°
2026-04-16 08:34 51.74810 -0.69719 33101 ft 488 kts 146°
2026-04-16 08:34 51.72265 -0.66082 33093 ft 489 kts 146°
2026-04-16 08:35 51.67180 -0.58830 33105 ft 487 kts 146°
2026-04-16 08:35 51.62645 -0.50620 33122 ft 499 kts 128°
2026-04-16 08:36 51.59734 -0.40407 33134 ft 507 kts 111°
2026-04-16 08:36 51.57943 -0.31440 33124 ft 507 kts 110°
2026-04-16 08:37 51.55795 -0.20669 33124 ft 505 kts 111°
2026-04-16 08:37 51.53583 -0.09947 33122 ft 505 kts 111°
2026-04-16 08:38 51.51331 0.00749 33144 ft 506 kts 111°
2026-04-16 08:38 51.49062 0.11451 33132 ft 507 kts 112°
2026-04-16 08:39 51.46783 0.22158 33139 ft 508 kts 112°
2026-04-16 08:39 51.44492 0.32876 33134 ft 508 kts 112°
2026-04-16 08:40 51.42190 0.43596 33144 ft 509 kts 112°
2026-04-16 08:40 51.39872 0.54326 33151 ft 510 kts 112°
2026-04-16 08:41 51.37547 0.65039 33150 ft 510 kts 112°
2026-04-16 08:41 51.35210 0.75747 33152 ft 510 kts 112°
2026-04-16 08:42 51.32864 0.86444 33130 ft 509 kts 112°
2026-04-16 08:42 51.30516 0.97101 33158 ft 508 kts 112°
2026-04-16 08:43 51.28225 1.07688 33166 ft 508 kts 108°
2026-04-16 08:43 51.26415 1.18590 33184 ft 508 kts 105°
2026-04-16 08:44 51.24743 1.29544 33179 ft 507 kts 105°
2026-04-16 08:44 51.23014 1.40447 33184 ft 506 kts 106°
2026-04-16 08:45 51.21233 1.51310 33179 ft 505 kts 106°
2026-04-16 08:45 51.19441 1.62132 33182 ft 504 kts 106°
2026-04-16 08:46 51.17646 1.72924 33187 ft 503 kts 106°
2026-04-16 08:46 51.15846 1.83692 33188 ft 503 kts 106°
2026-04-16 08:47 51.14039 1.94444 33186 ft 502 kts 107°
2026-04-16 08:47 51.12647 2.05300 33194 ft 502 kts 95°
2026-04-16 08:48 51.12130 2.16370 33198 ft 501 kts 94°
2026-04-16 08:48 51.11622 2.27436 33204 ft 501 kts 95°
2026-04-16 08:49 51.11026 2.38487 33202 ft 501 kts 95°
2026-04-16 08:49 51.10400 2.49513 33210 ft 500 kts 95°
2026-04-16 08:50 51.09728 2.60530 33202 ft 500 kts 100°
2026-04-16 08:50 51.07714 2.71030 33205 ft 495 kts 120°
2026-04-16 08:51 51.04481 2.80642 33214 ft 493 kts 122°
2026-04-16 08:51 51.01200 2.90209 33220 ft 493 kts 121°
2026-04-16 08:52 50.97947 2.99813 33212 ft 494 kts 121°
2026-04-16 08:52 50.94709 3.09436 33215 ft 494 kts 121°
2026-04-16 08:53 50.91491 3.18988 33211 ft 495 kts 121°
2026-04-16 08:53 50.88242 3.28591 33211 ft 495 kts 121°
2026-04-16 08:54 50.84983 3.38178 33209 ft 495 kts 121°
2026-04-16 08:54 50.81714 3.47757 33190 ft 495 kts 121°
2026-04-16 08:55 50.78441 3.57312 33208 ft 494 kts 121°
2026-04-16 08:55 50.75163 3.66845 33213 ft 494 kts 121°
2026-04-16 08:56 50.71876 3.76366 33210 ft 494 kts 121°
2026-04-16 08:56 50.68586 3.85861 33214 ft 493 kts 121°
2026-04-16 08:57 50.65290 3.95342 33215 ft 493 kts 121°
2026-04-16 08:57 50.61990 4.04796 33215 ft 492 kts 121°
2026-04-16 08:58 50.58686 4.14225 33214 ft 492 kts 121°
2026-04-16 08:58 50.55376 4.23638 33209 ft 491 kts 121°
2026-04-16 08:59 50.52064 4.33024 33210 ft 491 kts 121°
2026-04-16 08:59 50.48750 4.42378 33212 ft 490 kts 121°
2026-04-16 09:00 50.45447 4.51666 33211 ft 490 kts 121°
2026-04-16 09:00 50.42120 4.60991 33221 ft 490 kts 121°
2026-04-16 09:01 50.37111 4.74966 33221 ft 490 kts 121°
2026-04-16 09:02 50.33763 4.84264 33215 ft 490 kts 121°
2026-04-16 09:02 50.30411 4.93538 33217 ft 490 kts 121°
2026-04-16 09:03 50.27049 5.02807 33216 ft 490 kts 121°
2026-04-16 09:03 50.23677 5.12072 33222 ft 490 kts 121°
2026-04-16 09:04 50.20301 5.21317 33221 ft 490 kts 121°
2026-04-16 09:04 50.16918 5.30549 33221 ft 490 kts 121°
2026-04-16 09:05 50.13529 5.39756 33228 ft 490 kts 122°
2026-04-16 09:05 50.10108 5.48936 33221 ft 490 kts 122°
2026-04-16 09:06 50.06675 5.58095 33225 ft 490 kts 122°
2026-04-16 09:06 50.03237 5.67247 33219 ft 489 kts 122°
2026-04-16 09:07 49.99802 5.76368 33222 ft 489 kts 122°
2026-04-16 09:07 49.96360 5.85478 33231 ft 489 kts 122°
2026-04-16 09:08 49.92934 5.94512 33228 ft 489 kts 122°
2026-04-16 09:08 49.89479 6.03592 33235 ft 489 kts 122°
2026-04-16 09:09 49.86016 6.12661 33225 ft 489 kts 122°
2026-04-16 09:09 49.82547 6.21714 33224 ft 489 kts 122°
2026-04-16 09:10 49.79071 6.30754 33212 ft 488 kts 122°
2026-04-16 09:10 49.75593 6.39769 33220 ft 488 kts 121°
2026-04-16 09:11 49.72108 6.48770 33222 ft 487 kts 122°
2026-04-16 09:11 49.68621 6.57746 33225 ft 487 kts 122°
2026-04-16 09:12 49.65130 6.66701 33224 ft 487 kts 122°
2026-04-16 09:12 49.61633 6.75643 33221 ft 487 kts 122°
2026-04-16 09:13 49.58129 6.84570 33227 ft 486 kts 122°
2026-04-16 09:13 49.54645 6.93417 33223 ft 486 kts 122°
2026-04-16 09:14 49.51135 7.02298 33225 ft 485 kts 121°
2026-04-16 09:14 49.47620 7.11165 33223 ft 485 kts 122°
2026-04-16 09:15 49.44103 7.20005 33233 ft 484 kts 121°
2026-04-16 09:15 49.40590 7.28808 33230 ft 483 kts 122°
2026-04-16 09:16 49.37068 7.37603 33232 ft 483 kts 122°
2026-04-16 09:16 49.33547 7.46364 33247 ft 483 kts 122°
2026-04-16 09:17 49.30018 7.55119 33235 ft 482 kts 122°
2026-04-16 09:17 49.26491 7.63841 33231 ft 481 kts 122°
2026-04-16 09:18 49.22961 7.72538 33228 ft 480 kts 122°
2026-04-16 09:18 49.19438 7.81193 33233 ft 479 kts 122°
2026-04-16 09:19 49.15918 7.89811 33234 ft 477 kts 122°
2026-04-16 09:19 49.12399 7.98400 33253 ft 477 kts 122°
2026-04-16 09:20 49.08905 8.06900 33232 ft 476 kts 123°
2026-04-16 09:20 49.05385 8.15437 33247 ft 475 kts 123°
2026-04-16 09:21 49.01867 8.23945 33236 ft 474 kts 123°
2026-04-16 09:21 48.98327 8.32395 33234 ft 473 kts 125°
2026-04-16 09:22 48.94472 8.40496 33240 ft 472 kts 128°
2026-04-16 09:22 48.90501 8.48463 33237 ft 472 kts 128°
2026-04-16 09:23 48.86549 8.56440 33237 ft 473 kts 128°
2026-04-16 09:23 48.82613 8.64447 33238 ft 473 kts 127°
2026-04-16 09:24 48.78677 8.72456 33238 ft 474 kts 127°
2026-04-16 09:24 48.74732 8.80453 33249 ft 474 kts 128°
2026-04-16 09:25 48.70788 8.88435 33231 ft 473 kts 128°
2026-04-16 09:25 48.66846 8.96383 33232 ft 472 kts 128°
2026-04-16 09:26 48.62903 9.04307 33235 ft 471 kts 128°
2026-04-16 09:26 48.59629 9.10867 33233 ft 470 kts 128°
2026-04-16 09:27 48.55690 9.18732 33245 ft 469 kts 128°
2026-04-16 09:27 48.51151 9.27877 33235 ft 468 kts 129°
2026-04-16 09:28 48.47843 9.34394 33230 ft 467 kts 129°
2026-04-16 09:28 48.43911 9.42152 33237 ft 466 kts 129°
2026-04-16 09:29 48.39983 9.49914 33237 ft 465 kts 129°
2026-04-16 09:29 48.36049 9.57633 33244 ft 464 kts 131°
2026-04-16 09:30 48.32120 9.65266 33236 ft 464 kts 130°
2026-04-16 09:30 48.28097 9.72832 33250 ft 464 kts 132°
2026-04-16 09:31 48.24014 9.80330 33250 ft 464 kts 132°
2026-04-16 09:31 48.19943 9.87811 33251 ft 463 kts 131°
2026-04-16 09:32 48.15877 9.95302 33264 ft 463 kts 132°
2026-04-16 09:32 48.11807 10.02795 33259 ft 464 kts 132°
2026-04-16 09:33 48.07728 10.10282 33252 ft 464 kts 132°
2026-04-16 09:33 48.03647 10.17755 33261 ft 464 kts 132°
2026-04-16 09:34 47.99560 10.25215 33258 ft 464 kts 132°
2026-04-16 09:34 47.95498 10.32607 33253 ft 463 kts 132°
2026-04-16 09:35 47.91411 10.40028 33257 ft 463 kts 132°
2026-04-16 09:35 47.87321 10.47431 33257 ft 462 kts 132°
2026-04-16 09:36 47.83231 10.54815 33255 ft 462 kts 132°
2026-04-16 09:36 47.79138 10.62183 33258 ft 462 kts 132°
2026-04-16 09:37 47.75046 10.69531 33254 ft 461 kts 132°
2026-04-16 09:37 47.70950 10.76865 33233 ft 461 kts 132°
2026-04-16 09:38 47.66852 10.84184 33249 ft 461 kts 132°
2026-04-16 09:38 47.62752 10.91486 33259 ft 461 kts 132°
2026-04-16 09:39 47.58647 10.98777 33247 ft 460 kts 132°
2026-04-16 09:39 47.54545 11.06045 33257 ft 460 kts 132°
2026-04-16 09:40 47.50438 11.13299 33255 ft 460 kts 133°
2026-04-16 09:40 47.46323 11.20549 33236 ft 460 kts 133°
2026-04-16 09:41 47.42204 11.27789 33247 ft 460 kts 133°
2026-04-16 09:41 47.38082 11.35013 33247 ft 460 kts 133°
2026-04-16 09:42 47.33957 11.42223 33242 ft 460 kts 133°
2026-04-16 09:42 47.29861 11.49365 33245 ft 459 kts 133°
2026-04-16 09:43 47.25744 11.56524 33246 ft 458 kts 133°
2026-04-16 09:43 47.21628 11.63661 33237 ft 457 kts 133°
2026-04-16 09:44 47.17515 11.70776 33220 ft 456 kts 133°
2026-04-16 09:44 47.13411 11.77862 33235 ft 454 kts 133°
2026-04-16 09:45 47.09317 11.84915 33225 ft 454 kts 131°
2026-04-16 09:45 47.06011 11.92810 33234 ft 457 kts 117°
2026-04-16 09:46 47.03266 12.01228 33214 ft 457 kts 117°
2026-04-16 09:46 47.00512 12.09626 33204 ft 457 kts 117°
2026-04-16 09:47 46.97717 12.17996 33194 ft 458 kts 118°
2026-04-16 09:47 46.94899 12.26354 33218 ft 458 kts 118°
2026-04-16 09:48 46.92067 12.34715 33203 ft 458 kts 118°
2026-04-16 09:48 46.89253 12.43000 33199 ft 458 kts 117°
2026-04-16 09:49 46.86418 12.51324 33193 ft 457 kts 118°
2026-04-16 09:49 46.83579 12.59633 33184 ft 457 kts 118°
2026-04-16 09:50 46.80737 12.67927 33181 ft 457 kts 118°
2026-04-16 09:50 46.77890 12.76207 33162 ft 457 kts 118°
2026-04-16 09:51 46.75036 12.84480 33162 ft 457 kts 118°
2026-04-16 09:51 46.72177 12.92746 33146 ft 457 kts 118°
2026-04-16 09:52 46.69312 13.00999 33155 ft 456 kts 118°
2026-04-16 09:52 46.66441 13.09247 33151 ft 457 kts 118°
2026-04-16 09:53 46.63565 13.17485 33152 ft 456 kts 118°
2026-04-16 09:53 46.60685 13.25706 33146 ft 456 kts 118°
2026-04-16 09:54 46.57807 13.33903 33159 ft 455 kts 118°
2026-04-16 09:54 46.54632 13.41828 33168 ft 453 kts 126°
2026-04-16 09:55 46.50905 13.49189 33162 ft 452 kts 128°
2026-04-16 09:55 46.47138 13.56509 33163 ft 453 kts 127°
2026-04-16 09:56 46.43405 13.63860 33185 ft 453 kts 127°
2026-04-16 09:56 46.39715 13.71178 33175 ft 453 kts 127°
2026-04-16 09:57 46.36001 13.78547 33177 ft 452 kts 127°
2026-04-16 09:57 46.32278 13.85887 33173 ft 452 kts 126°
2026-04-16 09:58 46.28559 13.93228 33172 ft 453 kts 126°
2026-04-16 09:58 46.24834 14.00566 33166 ft 453 kts 127°
2026-04-16 09:59 46.21099 14.07895 33167 ft 453 kts 127°
2026-04-16 09:59 46.17347 14.15193 33171 ft 453 kts 126°
2026-04-16 10:00 46.13611 14.22503 33175 ft 452 kts 126°
2026-04-16 10:00 46.09873 14.29798 33182 ft 452 kts 126°
2026-04-16 10:01 46.04249 14.40688 33168 ft 452 kts 126°
2026-04-16 10:01 46.00533 14.47881 33178 ft 451 kts 126°
2026-04-16 10:02 45.96788 14.55113 33174 ft 451 kts 126°
2026-04-16 10:02 45.93038 14.62329 33179 ft 451 kts 126°
2026-04-16 10:03 45.89278 14.69541 33184 ft 452 kts 126°
2026-04-16 10:03 45.85506 14.76760 33196 ft 452 kts 126°
2026-04-16 10:04 45.81736 14.83961 33181 ft 451 kts 126°
2026-04-16 10:04 45.77964 14.91140 33183 ft 450 kts 126°
2026-04-16 10:05 45.74201 14.98286 33180 ft 449 kts 126°
2026-04-16 10:05 45.70441 15.05410 33200 ft 448 kts 126°
2026-04-16 10:06 45.66689 15.12497 33186 ft 447 kts 126°
2026-04-16 10:06 45.62945 15.19560 33187 ft 445 kts 126°
2026-04-16 10:07 45.59205 15.26598 33197 ft 444 kts 126°
2026-04-16 10:07 45.55408 15.33549 33190 ft 444 kts 128°
2026-04-16 10:08 45.51389 15.40251 33199 ft 444 kts 130°
2026-04-16 10:08 45.47361 15.46928 33184 ft 444 kts 129°
2026-04-16 10:09 45.43346 15.53613 33195 ft 444 kts 129°
2026-04-16 10:09 45.39337 15.60314 33195 ft 444 kts 129°
2026-04-16 10:10 45.35332 15.67005 33206 ft 445 kts 129°
2026-04-16 10:10 45.31345 15.73651 33192 ft 445 kts 129°
2026-04-16 10:11 45.27328 15.80329 33197 ft 444 kts 129°
2026-04-16 10:11 45.23298 15.86978 33203 ft 444 kts 129°
2026-04-16 10:12 45.19298 15.93638 33189 ft 443 kts 129°
2026-04-16 10:12 45.15289 16.00258 33196 ft 442 kts 129°
2026-04-16 10:13 45.11285 16.06849 33188 ft 441 kts 129°
2026-04-16 10:13 45.07291 16.13415 33179 ft 439 kts 129°
2026-04-16 10:14 45.03311 16.19945 33184 ft 438 kts 129°
2026-04-16 10:14 44.99339 16.26455 33195 ft 436 kts 128°
2026-04-16 10:15 44.95386 16.32949 33173 ft 435 kts 127°
2026-04-16 10:15 44.91592 16.39496 33179 ft 433 kts 127°
2026-04-16 10:16 44.87811 16.46090 33170 ft 432 kts 127°
2026-04-16 10:16 44.84027 16.52644 33181 ft 431 kts 127°
2026-04-16 10:17 44.80234 16.59174 33188 ft 430 kts 127°
2026-04-16 10:17 44.76437 16.65686 33169 ft 430 kts 127°
2026-04-16 10:18 44.72640 16.72183 33175 ft 429 kts 127°
2026-04-16 10:18 44.68848 16.78657 33167 ft 429 kts 127°
2026-04-16 10:19 44.65695 16.84028 33169 ft 429 kts 127°
2026-04-16 10:19 44.61901 16.90479 33166 ft 428 kts 127°
2026-04-16 10:20 44.58105 16.96919 33160 ft 428 kts 127°
2026-04-16 10:20 44.54305 17.03351 33153 ft 428 kts 127°
2026-04-16 10:21 44.50508 17.09763 33158 ft 427 kts 127°
2026-04-16 10:21 44.46707 17.16167 33156 ft 428 kts 128°
2026-04-16 10:22 44.42889 17.22563 33151 ft 428 kts 128°
2026-04-16 10:22 44.39075 17.28971 33157 ft 430 kts 128°
2026-04-16 10:23 44.35244 17.35395 33154 ft 431 kts 128°
2026-04-16 10:23 44.31420 17.41784 33151 ft 432 kts 128°
2026-04-16 10:24 44.27558 17.48218 33152 ft 433 kts 128°
2026-04-16 10:24 44.23681 17.54663 33156 ft 434 kts 128°
2026-04-16 10:25 44.19794 17.61110 33146 ft 435 kts 129°
2026-04-16 10:25 44.15892 17.67547 33145 ft 435 kts 129°
2026-04-16 10:26 44.11993 17.73985 33144 ft 435 kts 130°
2026-04-16 10:26 44.08090 17.80431 33159 ft 436 kts 130°
2026-04-16 10:27 44.04174 17.86876 33148 ft 437 kts 130°
2026-04-16 10:27 44.00246 17.93320 33148 ft 437 kts 131°
2026-04-16 10:28 43.96306 17.99771 33148 ft 438 kts 131°
2026-04-16 10:28 43.92351 18.06225 33147 ft 439 kts 132°
2026-04-16 10:29 43.88312 18.12582 33160 ft 440 kts 134°
2026-04-16 10:29 43.84226 18.18916 33166 ft 442 kts 133°
2026-04-16 10:30 43.80127 18.25284 33161 ft 444 kts 133°
2026-04-16 10:30 43.76017 18.31676 33151 ft 445 kts 133°
2026-04-16 10:31 43.71895 18.38060 33155 ft 445 kts 133°
2026-04-16 10:31 43.67776 18.44460 33150 ft 445 kts 133°
2026-04-16 10:32 43.63714 18.50827 33146 ft 445 kts 131°
2026-04-16 10:32 43.59847 18.57497 33127 ft 445 kts 130°
2026-04-16 10:33 43.56046 18.64220 33134 ft 444 kts 129°
2026-04-16 10:33 43.52238 18.70916 33129 ft 443 kts 130°
2026-04-16 10:34 43.48406 18.77573 33120 ft 444 kts 130°
2026-04-16 10:34 43.44561 18.84197 33131 ft 442 kts 130°
2026-04-16 10:35 43.40727 18.90807 33125 ft 442 kts 130°
2026-04-16 10:35 43.36893 18.97394 33125 ft 441 kts 130°
2026-04-16 10:36 43.33071 19.03960 33119 ft 439 kts 130°
2026-04-16 10:36 43.29258 19.10491 33133 ft 438 kts 131°
2026-04-16 10:37 43.25435 19.17022 33132 ft 438 kts 130°
2026-04-16 10:37 43.21619 19.23526 33123 ft 437 kts 130°
2026-04-16 10:38 43.17808 19.30010 33131 ft 437 kts 130°
2026-04-16 10:38 43.13994 19.36482 33128 ft 437 kts 131°
2026-04-16 10:39 43.10172 19.42954 33122 ft 437 kts 130°
2026-04-16 10:39 43.06346 19.49419 33120 ft 437 kts 130°
2026-04-16 10:40 43.02513 19.55882 33124 ft 438 kts 130°
2026-04-16 10:40 42.98672 19.62343 33121 ft 438 kts 131°
2026-04-16 10:41 42.94848 19.68763 33109 ft 439 kts 131°
2026-04-16 10:41 42.90997 19.75214 33118 ft 439 kts 131°
2026-04-16 10:42 42.87139 19.81663 33120 ft 439 kts 131°
2026-04-16 10:42 42.83270 19.88115 33120 ft 440 kts 131°
2026-04-16 10:43 42.79397 19.94563 33130 ft 440 kts 131°
2026-04-16 10:43 42.75511 20.01017 33121 ft 441 kts 131°
2026-04-16 10:44 42.71621 20.07458 33136 ft 440 kts 131°
2026-04-16 10:44 42.67728 20.13885 33127 ft 440 kts 131°
2026-04-16 10:45 42.63835 20.20301 33129 ft 440 kts 131°
2026-04-16 10:45 42.59942 20.26706 33134 ft 440 kts 132°
2026-04-16 10:46 42.56045 20.33104 33142 ft 439 kts 132°
2026-04-16 10:46 42.52152 20.39481 33136 ft 440 kts 132°
2026-04-16 10:47 42.48245 20.45867 33135 ft 440 kts 132°
2026-04-16 10:47 42.44330 20.52258 33134 ft 441 kts 131°
2026-04-16 10:48 42.40392 20.58611 33126 ft 441 kts 132°
2026-04-16 10:48 42.36475 20.65004 33140 ft 441 kts 132°
2026-04-16 10:49 42.32552 20.71382 33142 ft 441 kts 132°
2026-04-16 10:49 42.28638 20.77714 33145 ft 442 kts 132°
2026-04-16 10:50 42.24692 20.84082 33130 ft 442 kts 132°
2026-04-16 10:50 42.20743 20.90443 33123 ft 442 kts 132°
2026-04-16 10:51 42.16800 20.96781 33143 ft 441 kts 132°
2026-04-16 10:51 42.12855 21.03108 33132 ft 441 kts 132°
2026-04-16 10:52 42.08711 21.09143 33141 ft 438 kts 139°
2026-04-16 10:52 42.04256 21.14714 33125 ft 437 kts 140°
2026-04-16 10:53 41.99789 21.20245 33134 ft 436 kts 140°
2026-04-16 10:53 41.95379 21.25769 33125 ft 436 kts 140°
2026-04-16 10:54 41.90938 21.31363 33127 ft 434 kts 140°
2026-04-16 10:54 41.86569 21.36867 33138 ft 433 kts 140°
2026-04-16 10:55 41.82179 21.42385 33138 ft 433 kts 140°
2026-04-16 10:55 41.77781 21.47901 33123 ft 433 kts 140°
2026-04-16 10:56 41.73393 21.53386 33138 ft 431 kts 140°
2026-04-16 10:56 41.69007 21.58851 33127 ft 430 kts 140°
2026-04-16 10:57 41.64641 21.64309 33132 ft 429 kts 140°
2026-04-16 10:57 41.60283 21.69739 33126 ft 428 kts 140°
2026-04-16 10:58 41.55923 21.75155 33131 ft 428 kts 140°
2026-04-16 10:58 41.51569 21.80552 33124 ft 427 kts 140°
2026-04-16 10:59 41.47233 21.85933 33131 ft 425 kts 139°
2026-04-16 10:59 41.42927 21.91248 33131 ft 424 kts 140°
2026-04-16 11:00 41.38595 21.96577 33137 ft 423 kts 140°
2026-04-16 11:00 41.34271 22.01892 33136 ft 423 kts 140°
2026-04-16 11:01 41.29945 22.07204 33128 ft 424 kts 140°
2026-04-16 11:01 41.25614 22.12513 33129 ft 423 kts 140°
2026-04-16 11:02 41.21283 22.17814 33129 ft 423 kts 140°
2026-04-16 11:02 41.16955 22.23099 33121 ft 422 kts 140°
2026-04-16 11:03 41.12501 22.28148 33136 ft 421 kts 143°
2026-04-16 11:04 41.05645 22.35421 33119 ft 421 kts 144°
2026-04-16 11:04 41.01118 22.40247 33116 ft 421 kts 143°
2026-04-16 11:05 40.96570 22.45117 33126 ft 420 kts 143°
2026-04-16 11:05 40.92025 22.49985 33114 ft 421 kts 143°
2026-04-16 11:06 40.87424 22.54902 33283 ft 428 kts 143°
2026-04-16 11:06 40.85109 22.57373 33599 ft 427 kts 143°
2026-04-16 11:06 40.82804 22.59833 34013 ft 424 kts 143°
2026-04-16 11:06 40.80517 22.62271 34334 ft 422 kts 143°
2026-04-16 11:07 40.78229 22.64707 34513 ft 424 kts 143°
2026-04-16 11:07 40.75928 22.67153 34662 ft 426 kts 143°
2026-04-16 11:07 40.73617 22.69608 34833 ft 427 kts 143°
2026-04-16 11:07 40.71301 22.72066 35073 ft 427 kts 143°
2026-04-16 11:08 40.68979 22.74528 35089 ft 430 kts 143°
2026-04-16 11:08 40.64319 22.79465 35095 ft 429 kts 143°
2026-04-16 11:09 40.59678 22.84372 35098 ft 427 kts 143°
2026-04-16 11:09 40.55086 22.89219 35101 ft 425 kts 143°
2026-04-16 11:10 40.50474 22.94078 35108 ft 425 kts 143°
2026-04-16 11:10 40.45874 22.98931 35105 ft 424 kts 141°
2026-04-16 11:11 40.41677 23.04410 35113 ft 426 kts 135°
2026-04-16 11:11 40.38321 23.09153 35105 ft 427 kts 134°
2026-04-16 11:12 40.34271 23.14847 35103 ft 428 kts 135°
2026-04-16 11:12 40.30179 23.20522 35109 ft 429 kts 135°
2026-04-16 11:13 40.26061 23.26190 35101 ft 430 kts 135°
2026-04-16 11:13 40.21932 23.31853 35112 ft 430 kts 136°
2026-04-16 11:14 40.17795 23.37518 35100 ft 431 kts 136°
2026-04-16 11:14 40.13652 23.43183 35098 ft 431 kts 136°
2026-04-16 11:15 40.09513 23.48830 35098 ft 430 kts 136°
2026-04-16 11:15 40.05378 23.54463 35092 ft 429 kts 136°
2026-04-16 11:16 40.01251 23.60073 35092 ft 428 kts 136°
2026-04-16 11:16 39.97130 23.65665 35101 ft 427 kts 136°
2026-04-16 11:17 39.93041 23.71204 35097 ft 427 kts 136°
2026-04-16 11:17 39.88925 23.76768 35105 ft 426 kts 136°
2026-04-16 11:18 39.84820 23.82309 35082 ft 425 kts 136°
2026-04-16 11:18 39.80719 23.87833 35091 ft 424 kts 136°
2026-04-16 11:19 39.76627 23.93334 35095 ft 423 kts 136°
2026-04-16 11:19 39.72542 23.98817 35091 ft 422 kts 136°
2026-04-16 11:20 39.68463 24.04281 35089 ft 421 kts 136°
2026-04-16 11:20 39.64388 24.09730 35097 ft 420 kts 136°
2026-04-16 11:21 39.60319 24.15162 35081 ft 420 kts 137°
2026-04-16 11:21 39.56247 24.20587 35093 ft 419 kts 137°
2026-04-16 11:22 39.52181 24.25996 35086 ft 419 kts 137°
2026-04-16 11:22 39.48115 24.31395 35087 ft 418 kts 137°
2026-04-16 11:23 39.44080 24.36744 35086 ft 418 kts 137°
2026-04-16 11:23 39.40021 24.42115 35076 ft 418 kts 137°
2026-04-16 11:24 39.35958 24.47483 35076 ft 418 kts 137°
2026-04-16 11:24 39.31892 24.52845 35057 ft 418 kts 137°
2026-04-16 11:25 39.27829 24.58202 35075 ft 418 kts 137°
2026-04-16 11:25 39.23764 24.63556 35064 ft 418 kts 137°
2026-04-16 11:26 39.19696 24.68905 35057 ft 418 kts 137°
2026-04-16 11:26 39.15621 24.74254 35061 ft 418 kts 137°
2026-04-16 11:27 39.11546 24.79594 35035 ft 418 kts 137°
2026-04-16 11:27 39.07469 24.84926 35049 ft 418 kts 137°
2026-04-16 11:28 39.03387 24.90256 35051 ft 418 kts 137°
2026-04-16 11:28 38.99303 24.95579 35042 ft 418 kts 137°
2026-04-16 11:29 38.95218 25.00894 35038 ft 418 kts 137°
2026-04-16 11:29 38.91157 25.06170 35040 ft 418 kts 137°
2026-04-16 11:30 38.87066 25.11473 35035 ft 418 kts 137°
2026-04-16 11:30 38.82970 25.16775 35028 ft 418 kts 137°
2026-04-16 11:31 38.78874 25.22068 35030 ft 418 kts 137°
2026-04-16 11:31 38.74775 25.27356 35019 ft 418 kts 137°
2026-04-16 11:32 38.70672 25.32639 35021 ft 418 kts 137°
2026-04-16 11:32 38.66564 25.37919 35018 ft 418 kts 137°
2026-04-16 11:33 38.62453 25.43195 35011 ft 419 kts 137°
2026-04-16 11:33 38.58341 25.48463 35012 ft 419 kts 137°
2026-04-16 11:34 38.54218 25.53735 35006 ft 419 kts 138°
2026-04-16 11:34 38.50090 25.59006 35006 ft 420 kts 138°
2026-04-16 11:35 38.45957 25.64273 34990 ft 420 kts 138°
2026-04-16 11:35 38.41814 25.69545 34996 ft 421 kts 138°
2026-04-16 11:36 38.37692 25.74781 35000 ft 421 kts 138°
2026-04-16 11:36 38.33505 25.80090 34988 ft 422 kts 138°
2026-04-16 11:37 38.29340 25.85365 34985 ft 422 kts 138°
2026-04-16 11:37 38.25196 25.90595 34975 ft 422 kts 139°
2026-04-16 11:38 38.20821 25.95564 34970 ft 421 kts 142°
2026-04-16 11:38 38.16362 26.00405 34981 ft 422 kts 142°
2026-04-16 11:39 38.11917 26.05282 34973 ft 423 kts 142°
2026-04-16 11:39 38.07479 26.10178 34983 ft 423 kts 142°
2026-04-16 11:40 38.03040 26.15064 34983 ft 423 kts 142°
2026-04-16 11:40 37.98599 26.19944 34986 ft 422 kts 142°
2026-04-16 11:41 37.94157 26.24819 34987 ft 422 kts 142°
2026-04-16 11:41 37.89716 26.29688 34973 ft 422 kts 142°
2026-04-16 11:42 37.85275 26.34548 34978 ft 422 kts 142°
2026-04-16 11:42 37.80868 26.39376 34966 ft 422 kts 142°
2026-04-16 11:43 37.76438 26.44227 34975 ft 421 kts 142°
2026-04-16 11:43 37.72007 26.49072 34971 ft 421 kts 142°
2026-04-16 11:44 37.67575 26.53905 34961 ft 421 kts 142°
2026-04-16 11:44 37.63131 26.58717 34950 ft 421 kts 142°
2026-04-16 11:45 37.58679 26.63533 34951 ft 422 kts 142°
2026-04-16 11:45 37.54231 26.68357 34953 ft 422 kts 142°
2026-04-16 11:46 37.49762 26.73177 34952 ft 423 kts 142°
2026-04-16 11:46 37.45284 26.78003 34948 ft 424 kts 142°
2026-04-16 11:47 37.40793 26.82837 34947 ft 425 kts 142°
2026-04-16 11:47 37.36430 26.87804 34941 ft 427 kts 139°
2026-04-16 11:48 37.32110 26.93013 34950 ft 428 kts 139°
2026-04-16 11:48 37.27851 26.98178 34947 ft 429 kts 139°
2026-04-16 11:49 37.23529 27.03353 34938 ft 430 kts 140°
2026-04-16 11:49 37.19189 27.08517 34942 ft 430 kts 140°
2026-04-16 11:50 37.14839 27.13682 34937 ft 431 kts 140°
2026-04-16 11:50 37.10488 27.18841 34928 ft 431 kts 140°
2026-04-16 11:51 37.06137 27.23993 34933 ft 430 kts 140°
2026-04-16 11:51 37.01788 27.29134 34934 ft 430 kts 140°
2026-04-16 11:52 36.97442 27.34264 34934 ft 429 kts 140°
2026-04-16 11:52 36.93101 27.39378 34929 ft 429 kts 140°
2026-04-16 11:53 36.88793 27.44446 34931 ft 428 kts 140°
2026-04-16 11:53 36.84431 27.49570 34910 ft 427 kts 141°
2026-04-16 11:54 36.80115 27.54664 34924 ft 427 kts 141°
2026-04-16 11:54 36.75798 27.59697 34925 ft 428 kts 141°
2026-04-16 11:55 36.71412 27.64809 34931 ft 429 kts 141°
2026-04-16 11:55 36.67073 27.69869 34922 ft 431 kts 141°
2026-04-16 11:56 36.62686 27.74979 34922 ft 432 kts 141°
2026-04-16 11:56 36.58291 27.80092 34928 ft 433 kts 141°
2026-04-16 11:57 36.53885 27.85209 34911 ft 433 kts 141°
2026-04-16 11:57 36.49482 27.90313 34911 ft 433 kts 141°
2026-04-16 11:58 36.45086 27.95402 34910 ft 431 kts 141°
2026-04-16 11:58 36.40699 28.00474 34911 ft 430 kts 141°
2026-04-16 11:59 36.36359 28.05569 34907 ft 431 kts 136°
2026-04-16 11:59 36.33075 28.11865 34911 ft 441 kts 118°
2026-04-16 12:00 36.31049 28.19080 34917 ft 445 kts 110°
2026-04-16 12:00 36.29312 28.26396 34914 ft 446 kts 111°
2026-04-16 12:01 36.27480 28.33745 34920 ft 447 kts 111°
2026-04-16 12:01 36.25594 28.41086 34902 ft 448 kts 112°
2026-04-16 12:02 36.22741 28.52142 34915 ft 451 kts 112°
2026-04-16 12:02 36.20816 28.59548 34909 ft 452 kts 112°
2026-04-16 12:03 36.18883 28.66965 34898 ft 453 kts 112°
2026-04-16 12:03 36.16941 28.74404 34907 ft 454 kts 112°
2026-04-16 12:04 36.14991 28.81849 34905 ft 455 kts 112°
2026-04-16 12:04 36.13033 28.89308 34903 ft 456 kts 112°
2026-04-16 12:05 36.11400 28.95511 34900 ft 456 kts 112°
2026-04-16 12:05 36.09431 29.02973 34890 ft 456 kts 111°
2026-04-16 12:06 36.07138 29.11635 34895 ft 456 kts 111°
2026-04-16 12:06 36.05480 29.17880 34898 ft 456 kts 111°
2026-04-16 12:07 36.03498 29.25327 34879 ft 456 kts 111°
2026-04-16 12:07 36.01527 29.32710 34889 ft 456 kts 111°
2026-04-16 12:08 35.99538 29.40141 34889 ft 456 kts 111°
2026-04-16 12:08 35.97544 29.47572 34892 ft 456 kts 111°
2026-04-16 12:09 35.95547 29.54994 34879 ft 456 kts 111°
2026-04-16 12:09 35.93541 29.62414 34885 ft 456 kts 111°
2026-04-16 12:10 35.91530 29.69829 34888 ft 456 kts 111°
2026-04-16 12:10 35.89512 29.77255 34884 ft 456 kts 111°
2026-04-16 12:11 35.87491 29.84673 34877 ft 457 kts 111°
2026-04-16 12:11 35.85464 29.92096 34883 ft 457 kts 111°
2026-04-16 12:12 35.83428 29.99530 34883 ft 458 kts 111°
2026-04-16 12:12 35.81488 30.07010 34880 ft 459 kts 110°
2026-04-16 12:13 35.79647 30.14462 34855 ft 451 kts 110°
2026-04-16 12:13 35.78742 30.18120 34672 ft 443 kts 110°
2026-04-16 12:13 35.77844 30.21721 34410 ft 436 kts 110°
2026-04-16 12:14 35.76953 30.25271 34041 ft 433 kts 110°
2026-04-16 12:14 35.76063 30.28799 33663 ft 430 kts 110°
2026-04-16 12:14 35.75177 30.32298 33265 ft 427 kts 110°
2026-04-16 12:14 35.74296 30.35773 32885 ft 424 kts 110°
2026-04-16 12:15 35.73420 30.39224 32518 ft 420 kts 110°
2026-04-16 12:15 35.72552 30.42642 32149 ft 417 kts 110°
2026-04-16 12:15 35.71698 30.46000 31801 ft 414 kts 110°
2026-04-16 12:15 35.71086 30.48401 31552 ft 412 kts 110°
2026-04-16 12:16 35.70231 30.51757 31200 ft 410 kts 110°
2026-04-16 12:16 35.69382 30.55084 30853 ft 407 kts 110°
2026-04-16 12:16 35.68535 30.58399 30510 ft 405 kts 110°
2026-04-16 12:16 35.67691 30.61696 30162 ft 403 kts 110°
2026-04-16 12:17 35.66851 30.64976 29793 ft 401 kts 110°
2026-04-16 12:17 35.66016 30.68232 29404 ft 398 kts 110°
2026-04-16 12:17 35.65185 30.71467 29023 ft 395 kts 110°
2026-04-16 12:17 35.64361 30.74677 28686 ft 391 kts 110°
2026-04-16 12:18 35.63544 30.77853 28303 ft 389 kts 110°
2026-04-16 12:18 35.62730 30.81008 27965 ft 385 kts 110°
2026-04-16 12:18 35.61893 30.84123 27599 ft 382 kts 114°
2026-04-16 12:18 35.60720 30.87015 27248 ft 376 kts 124°
2026-04-16 12:19 35.59299 30.89697 26919 ft 372 kts 126°
2026-04-16 12:19 35.57867 30.92330 26564 ft 370 kts 126°
2026-04-16 12:19 35.56436 30.94950 26234 ft 368 kts 126°
2026-04-16 12:19 35.55038 30.97517 25890 ft 366 kts 126°
2026-04-16 12:20 35.53632 31.00111 25546 ft 364 kts 125°
2026-04-16 12:20 35.52235 31.02696 25207 ft 362 kts 125°
2026-04-16 12:20 35.50850 31.05267 24874 ft 361 kts 126°
2026-04-16 12:20 35.49470 31.07830 24543 ft 359 kts 125°
2026-04-16 12:21 35.48080 31.10372 24211 ft 358 kts 126°
2026-04-16 12:21 35.46692 31.12891 23877 ft 356 kts 124°
2026-04-16 12:21 35.45336 31.15432 23529 ft 356 kts 124°
2026-04-16 12:21 35.43982 31.17972 23144 ft 354 kts 124°
2026-04-16 12:22 35.42634 31.20493 22773 ft 353 kts 124°
2026-04-16 12:22 35.41292 31.22996 22415 ft 350 kts 124°
2026-04-16 12:22 35.39955 31.25480 22078 ft 348 kts 124°
2026-04-16 12:22 35.38631 31.27952 21734 ft 346 kts 124°
2026-04-16 12:23 35.37310 31.30402 21396 ft 344 kts 125°
2026-04-16 12:23 35.35993 31.32835 21070 ft 341 kts 124°
2026-04-16 12:23 35.34683 31.35250 20743 ft 339 kts 124°
2026-04-16 12:23 35.33380 31.37652 20411 ft 338 kts 124°
2026-04-16 12:24 35.32084 31.40040 20094 ft 336 kts 125°
2026-04-16 12:24 35.30793 31.42419 19766 ft 335 kts 125°
2026-04-16 12:24 35.29507 31.44787 19443 ft 333 kts 125°
2026-04-16 12:24 35.28226 31.47144 19123 ft 332 kts 125°
2026-04-16 12:25 35.26949 31.49494 18803 ft 331 kts 124°
2026-04-16 12:25 35.25675 31.51836 18472 ft 330 kts 125°
2026-04-16 12:25 35.24403 31.54174 18127 ft 330 kts 125°
2026-04-16 12:25 35.23132 31.56506 17755 ft 329 kts 125°
2026-04-16 12:26 35.21866 31.58830 17417 ft 328 kts 124°
2026-04-16 12:26 35.20604 31.61143 17093 ft 326 kts 124°
2026-04-16 12:26 35.19351 31.63439 16793 ft 323 kts 124°
2026-04-16 12:26 35.18118 31.65698 16745 ft 317 kts 124°
2026-04-16 12:27 35.16911 31.67907 16723 ft 307 kts 124°
2026-04-16 12:27 35.15748 31.70035 16718 ft 295 kts 124°
2026-04-16 12:27 35.14632 31.72076 16713 ft 283 kts 124°
2026-04-16 12:27 35.13562 31.74031 16718 ft 271 kts 124°
2026-04-16 12:28 35.12533 31.75910 16710 ft 263 kts 124°
2026-04-16 12:28 35.11509 31.77778 16749 ft 268 kts 124°
2026-04-16 12:28 35.10456 31.79699 16830 ft 274 kts 124°
2026-04-16 12:28 35.09375 31.81669 16572 ft 286 kts 124°
2026-04-16 12:29 35.08234 31.83743 15878 ft 304 kts 124°
2026-04-16 12:29 35.07043 31.85911 15370 ft 310 kts 124°
2026-04-16 12:29 35.05840 31.88098 15032 ft 310 kts 124°
2026-04-16 12:29 35.04658 31.90251 14745 ft 308 kts 123°
2026-04-16 12:30 35.03470 31.92414 14475 ft 306 kts 123°
2026-04-16 12:30 35.02284 31.94568 14189 ft 305 kts 123°
2026-04-16 12:30 35.01107 31.96706 13915 ft 303 kts 123°
2026-04-16 12:30 34.99933 31.98837 13625 ft 302 kts 123°
2026-04-16 12:31 34.98764 32.00956 13345 ft 300 kts 123°
2026-04-16 12:31 34.97604 32.03059 13045 ft 298 kts 122°
2026-04-16 12:31 34.96450 32.05150 12726 ft 297 kts 122°
2026-04-16 12:31 34.95478 32.06911 12457 ft 296 kts 122°
2026-04-16 12:32 34.94282 32.09075 12144 ft 295 kts 123°
2026-04-16 12:32 34.93816 32.09917 12002 ft 295 kts 123°
2026-04-16 12:32 34.92722 32.11895 11730 ft 294 kts 123°
2026-04-16 12:32 34.91646 32.13836 11551 ft 289 kts 123°
2026-04-16 12:33 34.90529 32.15847 11342 ft 285 kts 122°
2026-04-16 12:33 34.89622 32.17975 11104 ft 282 kts 110°
2026-04-16 12:33 34.88900 32.20193 10893 ft 282 kts 110°
2026-04-16 12:33 34.88177 32.22415 10683 ft 282 kts 110°
2026-04-16 12:34 34.87454 32.24637 10467 ft 282 kts 110°
2026-04-16 12:34 34.86730 32.26854 10256 ft 282 kts 110°
2026-04-16 12:34 34.86006 32.29067 10038 ft 281 kts 110°
2026-04-16 12:34 34.85283 32.31273 9840 ft 280 kts 110°
2026-04-16 12:35 34.84559 32.33476 9617 ft 280 kts 110°
2026-04-16 12:35 34.83838 32.35670 9384 ft 279 kts 110°
2026-04-16 12:35 34.83139 32.37835 9159 ft 278 kts 110°
2026-04-16 12:35 34.82472 32.39925 8947 ft 278 kts 110°
2026-04-16 12:36 34.81779 32.42114 8703 ft 277 kts 110°
2026-04-16 12:36 34.81116 32.44208 8477 ft 277 kts 110°
2026-04-16 12:36 34.80422 32.46393 8253 ft 276 kts 110°
2026-04-16 12:36 34.79731 32.48567 8031 ft 275 kts 110°
2026-04-16 12:37 34.79043 32.50735 7813 ft 275 kts 110°
2026-04-16 12:37 34.78358 32.52897 7592 ft 274 kts 110°
2026-04-16 12:37 34.77674 32.55053 7329 ft 272 kts 110°
2026-04-16 12:37 34.76992 32.57196 7072 ft 272 kts 110°
2026-04-16 12:38 34.76311 32.59336 6808 ft 271 kts 110°
2026-04-16 12:38 34.75633 32.61470 6531 ft 269 kts 110°
2026-04-16 12:38 34.74964 32.63565 6269 ft 263 kts 110°
2026-04-16 12:38 34.74306 32.65607 5989 ft 256 kts 110°
2026-04-16 12:39 34.73672 32.67594 5727 ft 249 kts 110°
2026-04-16 12:39 34.73054 32.69507 5484 ft 238 kts 110°
2026-04-16 12:39 34.72455 32.71364 5245 ft 234 kts 110°
2026-04-16 12:39 34.71863 32.73177 4989 ft 228 kts 110°
2026-04-16 12:40 34.71275 32.74947 4714 ft 223 kts 110°
2026-04-16 12:40 34.70693 32.76676 4442 ft 221 kts 110°
2026-04-16 12:40 34.70118 32.78395 4163 ft 218 kts 110°
2026-04-16 12:40 34.69394 32.80004 3869 ft 219 kts 130°
2026-04-16 12:41 34.68094 32.80933 3590 ft 221 kts 163°
2026-04-16 12:41 34.66558 32.80885 3346 ft 225 kts 193°
2026-04-16 12:41 34.65221 32.79933 3059 ft 224 kts 226°
2026-04-16 12:41 34.64477 32.78312 2796 ft 221 kts 258°
2026-04-16 12:42 34.64417 32.76516 2717 ft 213 kts 283°
2026-04-16 12:42 34.64749 32.74745 2688 ft 212 kts 285°
2026-04-16 12:42 34.65046 32.73024 2716 ft 212 kts 284°
2026-04-16 12:42 34.65348 32.71256 2681 ft 214 kts 284°
2026-04-16 12:43 34.65650 32.69493 2670 ft 210 kts 283°
2026-04-16 12:43 34.65978 32.67803 2665 ft 200 kts 291°
2026-04-16 12:43 34.66445 32.66217 2655 ft 200 kts 294°
2026-04-16 12:43 34.66930 32.64634 2462 ft 199 kts 294°
2026-04-16 12:44 34.67398 32.63095 2229 ft 188 kts 292°
2026-04-16 12:44 34.67837 32.61637 1988 ft 178 kts 292°
2026-04-16 12:44 34.68245 32.60297 1802 ft 162 kts 290°
2026-04-16 12:44 34.68625 32.59023 1572 ft 156 kts 290°
2026-04-16 12:45 34.68989 32.57781 1435 ft 159 kts 290°
2026-04-16 12:45 34.69374 32.56514 1154 ft 157 kts 291°
2026-04-16 12:45 34.69748 32.55309 947 ft 150 kts 289°
2026-04-16 12:45 34.70107 32.54113 780 ft 151 kts 289°
2026-04-16 12:46 34.70470 32.52922 579 ft 151 kts 290°
2026-04-16 12:46 34.70833 32.51724 380 ft 150 kts 289°
2026-04-16 12:46 34.71187 32.50549 215 ft 147 kts 289°
2026-04-16 12:46 34.71541 32.49400 52 ft 140 kts 289°
2026-04-16 12:47 34.71838 32.48410 45 ft 105 kts 290°
2026-04-16 12:47 34.72039 32.47751 45 ft 62 kts 290°
2026-04-16 12:47 34.72148 32.47392 43 ft 38 kts 291°
2026-04-16 12:47 34.72212 32.47180 42 ft 14 kts 293°
2026-04-16 12:48 34.72248 32.47124 42 ft 7 kts 338°
2026-04-16 12:48 34.72294 32.47134 43 ft 7 kts 20°
2026-04-16 12:48 34.72339 32.47154 44 ft 7 kts 20°
2026-04-16 12:48 34.72381 32.47177 44 ft 7 kts 41°
2026-04-16 12:49 34.72381 32.47229 44 ft 7 kts 110°
2026-04-16 12:49 34.72363 32.47287 44 ft 8 kts 110°
2026-04-16 12:49 34.72343 32.47353 43 ft 9 kts 110°
2026-04-16 12:49 34.72321 32.47426 44 ft 10 kts 110°
2026-04-16 12:50 34.72295 32.47509 44 ft 11 kts 110°
2026-04-16 12:50 34.72267 32.47603 45 ft 13 kts 110°
2026-04-16 12:50 34.72234 32.47710 45 ft 14 kts 110°
2026-04-16 12:50 34.72198 32.47826 45 ft 15 kts 110°
2026-04-16 12:51 34.72159 32.47953 42 ft 16 kts 110°
2026-04-16 12:51 34.72118 32.48086 43 ft 17 kts 110°
2026-04-16 12:51 34.72076 32.48221 45 ft 17 kts 110°
2026-04-16 12:51 34.72036 32.48349 44 ft 16 kts 110°
2026-04-16 12:52 34.72007 32.48444 44 ft 7 kts 110°
2026-04-16 12:52 34.71979 32.48488 44 ft 7 kts 160°
2026-04-16 12:52 34.71932 32.48477 44 ft 8 kts 197°
2026-04-16 12:52 34.71876 32.48455 45 ft 9 kts 202°
2026-04-16 12:53 34.71816 32.48425 44 ft 10 kts 201°
2026-04-16 12:53 34.71747 32.48394 45 ft 11 kts 200°
2026-04-16 12:53 34.71668 32.48358 45 ft 13 kts 200°
2026-04-16 12:53 34.71582 32.48319 45 ft 14 kts 200°
2026-04-16 12:54 34.71491 32.48279 45 ft 14 kts 199°
2026-04-16 12:54 34.71426 32.48262 45 ft 9 kts 163°
2026-04-16 12:54 34.71393 32.48323 43 ft 9 kts 112°
2026-04-16 12:54 34.71378 32.48368 45 ft 9 kts 110°
2026-04-16 12:55 34.71359 32.48435 45 ft 8 kts 109°
2026-04-16 12:55 34.71344 32.48501 45 ft 8 kts 86°
2026-04-16 12:55 34.71365 32.48563 44 ft 8 kts 66°
2026-04-16 12:55 34.71387 32.48623 45 ft 8 kts 66°
2026-04-16 12:56 34.71405 32.48672 43 ft 3 kts 64°
2026-04-16 12:56 34.71402 32.48697 45 ft 3 kts 118°
2026-04-16 12:56 34.71384 32.48713 44 ft 3 kts 148°
2026-04-16 12:56 34.71362 32.48727 45 ft 4 kts 156°
2026-04-16 12:57 34.71339 32.48740 45 ft 2 kts 155°